W3OW Weather Reports


time (UTC)temp
C
wind
direction
speed
KPH
gust
KPH
rain 1hr
cm
rain 24hr
cm
rain mn
cm
humidity
%
barometer
mb
20260507160011 15 67 4.8 12.9 0.00 0.05 0.00 40 1011.7
20260507154544 15 297 4.8 12.9 0.00 0.05 0.00 41 1011.8
20260507153024 15 37 3.2 16.1 0.00 0.05 0.00 45 1011.9
20260507151612 13 80 8.0 17.7 0.00 0.05 0.00 44 1012.1
20260507151502 13 58 6.4 17.7 0.00 0.05 0.00 45 1012.1
20260507150048 13 304 4.8 16.1 0.00 0.05 0.00 46 1012.4
20260507144530 13 5 8.0 22.5 0.00 0.08 0.00 46 1012.6
20260507143013 13 13 3.2 9.7 0.00 0.08 0.00 47 1012.9
20260507141558 12 292 4.8 12.9 0.00 0.08 0.00 51 1013.0
20260507140038 12 315 6.4 12.9 0.00 0.08 0.00 53 1013.2
20260507134521 12 282 3.2 9.7 0.00 0.28 0.00 53 1013.4
20260507133005 12 47 0.0 8.0 0.00 0.28 0.00 54 1013.5
20260507131548 12 346 1.6 6.4 0.00 0.28 0.00 56 1013.5
20260507130026 11 1 3.2 9.7 0.00 0.43 0.00 56 1013.6
20260507124514 11 23 0.0 6.4 0.00 0.43 0.00 57 1013.6
20260507123054 11 314 1.6 8.0 0.00 0.43 0.00 57 1013.5
20260507121543 11 300 3.2 11.3 0.00 0.43 0.00 57 1013.2
20260507120028 11 286 3.2 11.3 0.00 0.43 0.00 55 1013.2
20260507114612 11 315 1.6 6.4 0.00 0.58 0.00 57 1013.2
20260507114503 11 359 3.2 6.4 0.00 0.58 0.00 57 1013.1
20260507113044 11 47 1.6 8.0 0.00 0.58 0.00 55 1013.0
20260507111528 11 21 1.6 8.0 0.00 0.58 0.00 55 1013.2
20260507110011 11 31 3.2 11.3 0.00 0.61 0.00 55 1012.9
20260507104549 11 329 1.6 8.0 0.00 0.61 0.00 55 1012.9
20260507103039 11 323 1.6 8.0 0.00 0.61 0.00 56 1012.5
20260507101514 11 28 3.2 9.7 0.00 0.61 0.00 55 1012.3
20260507100051 11 8 4.8 11.3 0.00 0.61 0.00 56 1012.2
20260507094536 11 53 1.6 9.7 0.00 0.61 0.00 59 1011.8
20260507093010 11 316 3.2 12.9 0.00 0.61 0.00 60 1011.8
20260507091553 12 311 4.8 24.1 0.00 0.61 0.00 62 1011.8
20260507090032 12 11 3.2 14.5 0.00 0.61 0.00 66 1012.0
20260507084522 12 27 3.2 17.7 0.00 0.61 0.00 67 1011.8
20260507083015 12 315 3.2 11.3 0.00 0.61 0.00 69 1011.8
20260507081552 12 278 3.2 9.7 0.00 0.61 0.00 72 1011.7
20260507080030 12 37 3.2 6.4 0.00 0.61 0.00 74 1011.3
20260507074514 12 330 1.6 12.9 0.00 0.61 0.00 73 1011.3
20260507073103 12 37 3.2 12.9 0.00 0.61 0.00 73 1011.2
20260507071539 12 46 1.6 11.3 0.00 0.61 0.00 73 1011.1
20260507070038 12 30 3.2 16.1 0.00 0.61 0.00 73 1011.1
20260507064514 12 26 4.8 14.5 0.00 0.61 0.00 73 1011.4
20260507063047 12 82 1.6 9.7 0.00 0.61 0.00 73 1011.5
20260507061532 12 23 3.2 8.0 0.00 0.61 0.00 73 1011.8
20260507060019 12 352 3.2 9.7 0.00 0.61 0.00 72 1011.7
20260507054558 13 1 1.6 8.0 0.00 0.61 0.00 72 1011.5
20260507053028 13 315 3.2 11.3 0.00 0.61 0.00 72 1011.2
20260507051515 13 316 0.0 12.9 0.00 0.61 0.00 73 1011.5
20260507050056 13 304 3.2 14.5 0.00 0.61 0.00 75 1011.4
20260507044531 13 295 1.6 14.5 0.00 0.61 0.00 78 1011.4
20260507043016 13 20 4.8 16.1 0.00 0.61 0.00 78 1011.0
20260507041553 13 294 8.0 17.7 0.00 0.61 0.00 78 1011.6
20260507040040 13 322 3.2 12.9 0.00 0.61 0.00 79 1010.8